St. Johns, AZ

1:54 AM MST on January 23, 2018 (GMT -0700)
Saint Johns Industrial

Weather History for KSJN - November, 2013

Change the Weather History Date:

Monday, November 18, 2013

  Actual Average (KLSB) Record (KLSB)
Temperature  
Mean Temperature 36 °F -  
Max Temperature 50 °F 64 °F 69 °F (2013)
Min Temperature 23 °F 30 °F 19 °F (2014)
Degree Days  
Heating Degree Days 28    
Moisture  
Dew Point 32 °F    
Average Humidity 67    
Maximum Humidity 89    
Minimum Humidity 34    
Precipitation  
Precipitation 0.00 in - - ()
Sea Level Pressure  
Sea Level Pressure 30.11 in    
Wind  
Wind Speed 3 mph (NNE)    
Max Wind Speed 9 mph    
Max Gust Speed -    
Visibility 10 miles    
Events      
Averages and records for this station are not official NWS values.
T = Trace of Precipitation, MM = Missing Value Source: NWS Daily Summary

Daily Weather History Graph

Daily Weather History Graph

Search for Another Location

Airport or City:

Trip Planner

Search our weather history database for the weather conditions in past years. The results will help you decide how hot, cold, wet, or windy it might be!

Date:

Astronomy

Nov. 18, 2013 Rise Set
Actual Time 6:54 AM MST 5:11 PM MST
Civil Twilight 6:27 AM MST 5:37 PM MST
Nautical Twilight 5:56 AM MST 6:08 PM MST
Astronomical Twilight 5:26 AM MST 6:38 PM MST
Moon 6:16 PM MST (11/18) 7:45 AM MST (11/18)
Length of Visible Light 11h 10m
Length of Day
10h 16m
Full, 99% of the Moon is Illuminated
Nov 18
Full
Nov 25
Last Quarter
Dec 2
New
Dec 9
First Quarter
Dec 17
Full

Hourly Weather History & Observations

Time (MST) Temp. Windchill Dew Point Humidity Pressure Visibility Wind Dir Wind Speed Gust Speed Precip Events Conditions
12:54 AM 37.0 °F 33.3 °F 30.9 °F 79% 30.12 in 10.0 mi ESE 4.6 mph - N/A   Clear
1:54 AM 33.1 °F - 28.9 °F 85% 30.12 in 10.0 mi Calm Calm - N/A   Clear
2:54 AM 30.9 °F 26.2 °F 28.0 °F 89% 30.12 in 10.0 mi West 4.6 mph - N/A   Clear
3:54 AM 32.0 °F - 28.9 °F 88% 30.11 in 10.0 mi Calm Calm - N/A   Clear
4:54 AM 35.1 °F - 30.0 °F 82% 30.12 in 10.0 mi Calm Calm - N/A   Clear
5:54 AM 32.0 °F - 28.9 °F 88% 30.17 in 10.0 mi Calm Calm - N/A   Clear
6:54 AM 34.0 °F - 30.0 °F 85% 30.17 in 10.0 mi Calm Calm - N/A   Clear
7:54 AM 33.1 °F - 30.0 °F 89% 30.19 in 10.0 mi Calm Calm - N/A   Clear
8:54 AM 37.9 °F 35.5 °F 32.0 °F 79% 30.19 in 10.0 mi North 3.5 mph - N/A   Clear
9:54 AM 42.1 °F - 34.0 °F 73% 30.19 in 10.0 mi Calm Calm - N/A   Clear
10:54 AM 48.0 °F - 34.0 °F 58% 30.17 in 10.0 mi NNW 3.5 mph - N/A   Clear
11:54 AM 55.0 °F - 35.1 °F 47% 30.13 in 10.0 mi NNE 4.6 mph - N/A   Clear
12:54 PM 57.9 °F - 37.0 °F 46% 30.08 in 10.0 mi North 6.9 mph - N/A   Clear
1:54 PM 59.0 °F - 36.0 °F 42% 30.06 in 10.0 mi North 5.8 mph - N/A   Clear
2:54 PM 60.1 °F - 36.0 °F 41% 30.05 in 10.0 mi NNW 4.6 mph - N/A   Clear
3:54 PM 61.0 °F - 35.1 °F 38% 30.03 in 10.0 mi NNE 3.5 mph - N/A   Clear
4:54 PM 57.0 °F - 35.1 °F 44% 30.04 in 10.0 mi NNE 4.6 mph - N/A   Clear
5:54 PM 51.1 °F - 35.1 °F 54% 30.07 in 10.0 mi Calm Calm - N/A   Clear
6:54 PM 46.9 °F - 35.1 °F 63% 30.10 in 10.0 mi South 3.5 mph - N/A   Clear
7:54 PM 46.0 °F - 35.1 °F 66% 30.11 in 10.0 mi Calm Calm - N/A   Clear
8:54 PM 45.0 °F 41.2 °F 35.1 °F 68% 30.10 in 10.0 mi South 6.9 mph - N/A   Clear
9:54 PM 43.0 °F 39.5 °F 34.0 °F 71% 30.10 in 10.0 mi South 5.8 mph - N/A   Clear
10:54 PM 43.0 °F 39.5 °F 34.0 °F 71% 30.07 in 10.0 mi SE 5.8 mph - N/A   Clear
11:54 PM 41.0 °F 39.0 °F 33.1 °F 73% 30.06 in 10.0 mi SSE 3.5 mph - N/A   Clear